Home   Weather   Tel Aviv   Past weeks

Flag for Israel Past Weather in Tel Aviv, Israel — Yesterday and Last 2 Weeks

Now
70 °F

Sunny.


Feels Like: 70 °F
Forecast: 65 / 75 °F
Wind: 2 mph from North

Location: Ben Gurion International Airport

Current Time: May 1, 2017 at 9:36:35 am

Latest Report: May 1, 2017 at 8:50 am


Visibility: 10 mi

Pressure: 29.83 "Hg

Humidity: 60%

Dew Point: 55 °F

Location of Tel AvivLocation

Past Weather in Tel Aviv — Graph

°F

Tel Aviv Temperature Yesterday

Maximum temperature yesterday: 82 °F (at 11:20 am)
Minimum temperature yesterday: 57 °F (at 2:50 am)
Average temperature yesterday: 70 °F

High & Low Weather Summary for the Past Weeks

 TemperatureHumidityPressure
High102 °F (Apr 22, 12:20 pm)94% (Apr 30, 9:50 pm)30.12 "Hg (Apr 30, 9:50 pm)
Low54 °F (Apr 17, 4:50 am)8% (Apr 22, 11:20 am)29.65 "Hg (Apr 22, 3:50 pm)
Average69 °F57%29.97 "Hg
* Reported Apr 16 8:20 am — May 1 8:20 am, Tel Aviv, Weather by CustomWeather, © 2017

Note: Actual official high and low records may vary slightly from our data, if they occured in-between our weather recording intervals... More about our weather records

Advertising

Tel Aviv Weather History for the Previous 24 Hours

Scroll right to see more
 ConditionsComfort  
Time TempWeatherWind HumidityBarometerVisibility
8:20 am
Mon, May 1
68 °FSunny.3 mph69%29.83 "Hg10 mi
7:50 am66 °FSunny.2 mph73%29.83 "Hg10 mi
7:20 am64 °FClear.2 mph78%29.83 "Hg5 mi
6:50 am64 °FClear.3 mph83%29.80 "Hg6 mi
6:20 am63 °FHaze.3 mph88%29.80 "Hg6 mi
6:05 am63 °FFog.5 mph94%29.80 "Hg5 mi
5:50 am63 °FFog.5 mph94%29.80 "Hg4 mi
5:35 am63 °FFog.6 mph94%29.80 "Hg3 mi
5:20 am63 °FFog.6 mph94%29.80 "Hg3 mi
5:05 am63 °FFog.6 mph94%29.80 "Hg4 mi
4:50 am63 °FPassing clouds.8 mph94%29.83 "Hg4 mi
4:20 am63 °FClear.6 mph88%29.80 "Hg6 mi
3:20 am64 °FClear.3 mph88%29.80 "Hg5 mi
2:50 am64 °FClear.5 mph88%29.80 "Hg5 mi
1:50 am64 °FClear.3 mph94%29.80 "Hg10 mi
1:35 am64 °FClear.5 mph88%29.80 "Hg10 mi
1:20 am66 °FPassing clouds.6 mph88%29.80 "HgN/A
1:05 am66 °FPassing clouds.5 mph88%29.80 "HgN/A
12:50 am66 °FPassing clouds.3 mph88%29.83 "HgN/A
12:20 am66 °FPassing clouds.3 mph88%29.83 "HgN/A
11:50 pm
Sun, Apr 30
68 °FPassing clouds.6 mph83%29.83 "HgN/A
11:35 pm68 °FPassing clouds.2 mph88%29.83 "HgN/A
11:20 pm68 °FPassing clouds.No wind88%29.83 "HgN/A
10:50 pm68 °FPassing clouds.2 mph88%29.83 "HgN/A
10:20 pm66 °FClear.2 mph94%29.83 "Hg10 mi
9:50 pm66 °FClear.6 mph94%29.83 "Hg10 mi
9:20 pm68 °FClear.5 mph88%29.83 "Hg10 mi
8:50 pm68 °FClear.8 mph88%29.80 "Hg10 mi
8:20 pm68 °FClear.7 mph83%29.80 "Hg10 mi
7:50 pm70 °FClear.6 mph78%29.77 "Hg10 mi
7:20 pm72 °FClear.6 mph73%29.77 "Hg10 mi
6:50 pm72 °FSunny.7 mph69%29.77 "Hg10 mi
6:20 pm73 °FSunny.7 mph65%29.77 "Hg10 mi
5:50 pm75 °FSunny.8 mph61%29.77 "Hg10 mi
5:20 pm75 °FSunny.12 mph61%29.77 "Hg10 mi
4:50 pm77 °FSunny.9 mph51%29.77 "Hg10 mi
4:20 pm77 °FSunny.7 mph51%29.77 "Hg10 mi
3:50 pm77 °FPassing clouds.7 mph54%29.77 "HgN/A
3:20 pm77 °FPassing clouds.9 mph54%29.80 "HgN/A
2:50 pm77 °FSunny.12 mph54%29.80 "Hg10 mi
2:20 pm77 °FSunny.15 mph54%29.80 "Hg10 mi
1:50 pm81 °FSunny.15 mph48%29.80 "Hg10 mi
1:20 pm81 °FSunny.12 mph48%29.80 "Hg10 mi
12:50 pm81 °FSunny.13 mph42%29.80 "Hg10 mi
12:20 pm79 °FSunny.10 mph48%29.80 "Hg10 mi
11:50 am81 °FSunny.10 mph45%29.83 "Hg10 mi
11:20 am82 °FSunny.8 mph35%29.83 "Hg10 mi
10:50 am81 °FSunny.6 mph37%29.83 "Hg10 mi
10:20 am79 °FSunny.7 mph39%29.86 "Hg10 mi
9:50 am77 °FSunny.6 mph36%29.86 "Hg10 mi
9:20 am73 °FSunny.6 mph47%29.86 "Hg10 mi
Weather by CustomWeather, © 2017

See weather overviewHow to use our weather pages